Content
SEND FEEDBACK

Daily
Averages
Monthly
Summary
United States of America

CRESCENT CITY, CALIFORNIA


Home > North America > United States > California
Elevation: 56 feet     Latitude: 41 46N     Longitude: 124 14W

WEATHER
 
SELECT A DAY
Number of Records: 269,997;   Date Range: 1/1/95 - 9/18/14
 
SHARE

PRINT THIS DATA

[ ← Previous Day ]
WEATHER ALMANAC - MAY 6, 2013
[ Next Day → ]
[ °C ]   °F
Weather ElementAverageHighLow
Temperature53.4 °F59 °F (12:56 pm)46 °F (6:56 am)
Dewpoint49.7 °F53.1 °F (7:56 am)45 °F (5:56 am)
Humidity87.7 %100 % (6:56 am)75 % (12:56 pm)
Barometer29.94 in30.01 in (9:56 pm)29.89 in (1:56 am)
Wind Speed4 mph8.1 mph (10:56 am)
Weather ElementAverage
Visibility8.8 mi
Wind DirectionSSE (170.4 °)

Weather ElementTotal
Precipitation0.07 in
Heating Degree Days12.5 (Base 65)
Growing Degree Days2.5 (Base 50)
Averaged from 26 records on May 6, 2013
WEATHER CONDITIONS BREAKOUT
WIND DIRECTION BREAKOUT
WEATHER BY HOUR - MAY 6, 2013
[ °C ]   °F
Local TimeTemperatureDewpointHumidityBarometerVisibilityWind DirectionWind SpeedGust SpeedPrecipitationEventsConditions
1:56 AM48.0 °F46.9 °F96 %29.89 in10.0 miCalmClear
2:56 AM48.0 °F46.0 °F93 %29.89 in10.0 miNE (50°)3.5 mphClear
3:56 AM48.0 °F46.0 °F93 %29.89 in10.0 miNE (40°)3.5 mphClear
4:56 AM48.9 °F46.9 °F93 %29.90 in10.0 miENE (60°)4.6 mphClear
5:56 AM46.9 °F45.0 °F93 %29.90 in10.0 miCalmClear
6:56 AM46.0 °F46.0 °F100 %29.90 in3.0 miNW (320°)4.6 mphClear
7:56 AM53.1 °F53.1 °F100 %29.92 in10.0 miCalmClear
8:56 AM55.0 °F52.0 °F89 %29.92 in10.0 miNW (320°)4.6 mphClear
9:56 AM57.0 °F51.1 °F81 %29.93 in10.0 miNNW (330°)5.8 mphClear
10:56 AM57.0 °F51.1 °F81 %29.93 in10.0 miNW (320°)8.1 mphClear
11:56 AM57.0 °F50.0 °F77 %29.93 in10.0 miNNW (340°)8.1 mphClear
12:56 PM59.0 °F51.1 °F75 %29.94 in10.0 miNNW (330°)6.9 mphClear
1:56 PM57.9 °F51.1 °F78 %29.94 in10.0 miNW (310°)6.9 mphClear
2:56 PM57.9 °F51.1 °F78 %29.94 in10.0 miWNW (300°)6.9 mphClear
3:56 PM57.9 °F51.1 °F78 %29.94 in10.0 miNW (320°)5.8 mphClear
4:56 PM57.0 °F52.0 °F83 %29.95 in10.0 miVariable4.6 mphClear
5:56 PM55.9 °F50.0 °F80 %29.96 in10.0 miWest (270°)6.9 mphClear
6:20 PM55.4 °F50.0 °F82 %29.96 in10.0 miWNW (290°)4.6 mphScattered Clouds
6:34 PM53.6 °F50.0 °F88 %29.96 in10.0 miCalmMostly Cloudy
6:48 PM53.6 °F50.0 °F88 %29.97 in9.0 miCalmScattered Clouds
6:56 PM54.0 °F50.0 °F86 %29.98 in9.0 miCalmPartly Cloudy
7:56 PM54.0 °F50.0 °F86 %29.98 in9.0 miWest (270°)5.8 mph0.00 inRainLight Rain
9:56 PM53.1 °F51.1 °F93 %30.01 in6.0 miNNW (340°)5.8 mph0.02 inRainLight Rain
11:06 PM51.8 °F51.8 °F100 %29.98 in3.0 miCalm0.01 inRainLight Rain
11:19 PM51.8 °F50.0 °F94 %29.99 in5.0 miCalm0.01 inRainLight Rain
11:56 PM51.1 °F50.0 °F96 %29.98 in5.0 miSW (220°)5.8 mph0.03 inRainLight Rain
Hourly data recorded from KCEC, located miles away from Crescent City, California







STORIES FROM OUR PARTNERS